This demonstration page uses our WeatherBlox Daily Observations layout. Learn more.

Left ArrowRight Arrow

44.89941, -97.11507

Hourly Observations for July 22, 2016

Temp ( °F °C ) Dew Point ( °F °C ) Humidity (%) Winds ( mph kmh ) Pressure ( in mb ) Visibility ( mi km ) Precip ( " mm )
12:53 am 00:53 Clear 77 25 72 22.2 85 85 Calm 29.96 1015 10 16 0.00 0.00
1:53 am 01:53 Clear 77 25 71 21.7 82 82 E 6 9 29.95 1014 10 16 0.00 0.00
2:53 am 02:53 Clear 78 25.6 71 21.7 79 79 ESE 10 17 29.93 1014 10 16 0.00 0.00
3:53 am 03:53 Clear 77 25 63 17.2 62 62 SE 10 17 29.91 1013 10 16 0.00 0.00
4:53 am 04:53 Clear 73 22.8 62 16.7 69 69 undefined N/A 29.94 1014 10 16 0.00 0.00
5:53 am 05:53 Clear 73 22.8 63 17.2 71 71 Calm 29.96 1015 10 16 0.00 0.00
6:53 am 06:53 Sunny 75 23.9 67 19.4 76 76 Calm 29.98 1015 10 16 0.00 0.00
7:53 am 07:53 Sunny 79 26.1 68 20 69 69 NE 3 6 29.98 1015 10 16 0.00 0.00
8:53 am 08:53 Sunny 83 28.3 69 20.6 63 63 E 8 13 29.99 1016 10 16 0.00 0.00
9:53 am 09:53 Sunny 84 28.9 71 21.7 65 65 SE 8 13 29.98 1015 10 16 0.00 0.00
10:53 am 10:53 Sunny 87 30.6 72 22.2 61 61 SE 12 19 29.99 1016 10 16 0.00 0.00
11:53 am 11:53 Sunny 88 31.1 72 22.2 59 59 E 10 17 30.00 1016 10 16 0.00 0.00
12:53 pm 12:53 Sunny 90 32.2 72 22.2 56 56 ESE 9 15 29.99 1016 10 16 0.00 0.00
1:53 pm 13:53 Sunny 92 33.3 72 22.2 52 52 SE 10 17 29.97 1015 10 16 0.00 0.00
2:53 pm 14:53 Sunny 93 33.9 72 22.2 50 50 E 8 13 29.98 1015 10 16 0.00 0.00
3:53 pm 15:53 Sunny 94 34.4 70 21.1 46 46 NE 9 15 29.99 1016 10 16 0.00 0.00
4:53 pm 16:53 Sunny 88 31.1 69 20.6 54 54 NNE 12 19 30.02 1017 10 16 0.00 0.00
5:53 pm 17:53 Sunny 85 29.4 65 18.3 51 51 E 8 13 29.98 1015 10 16 0.00 0.00
6:53 pm 18:53 Sunny 85 29.4 68 20 57 57 SE 14 22 29.87 1012 10 16 0.00 0.00
7:53 pm 19:53 Sunny 84 28.9 68 20 59 59 SSE 12 19 29.89 1012 10 16 0.00 0.00
8:53 pm 20:53 Sunny 82 27.8 68 20 63 63 SE 7 11 29.92 1013 10 16 0.00 0.00
9:53 pm 21:53 Clear 77 25 69 20.6 77 77 NE 6 9 29.94 1014 10 16 0.00 0.00
10:53 pm 22:53 Clear 76 24.4 68 20 77 77 NNE 7 11 29.94 1014 10 16 0.00 0.00
11:53 pm 23:53 Clear 79 26.1 66 18.9 65 65 E 7 11 29.93 1014 10 16 0.00 0.00

Powered by AerisWeather